| time (UTC) | temp F | wind direction | speed knots | gust knots | rain 1hr in | rain 24hr in | rain mn in | humidity % | barometer mb |
| 20260506202005 | 60 | 280 | 1.7 | 3.5 | 0.00 | 2.07 | 2.07 | 94 | 1013.7 |
| 20260506201505 | 60 | 277 | 2.6 | 4.3 | 0.00 | 2.07 | 2.07 | 94 | 1013.7 |
| 20260506201006 | 60 | 257 | 1.7 | 4.3 | 0.00 | 2.07 | 2.07 | 94 | 1013.7 |
| 20260506200505 | 60 | 248 | 3.5 | 4.3 | 0.00 | 2.07 | 2.07 | 95 | 1013.7 |
| 20260506200006 | 60 | 239 | 2.6 | 3.5 | 0.00 | 2.07 | 2.07 | 94 | 1013.7 |
| 20260506195505 | 60 | 253 | 1.7 | 3.5 | 0.00 | 2.07 | 2.07 | 94 | 1012.7 |
| 20260506195005 | 60 | 245 | 1.7 | 3.5 | 0.00 | 2.07 | 2.07 | 95 | 1012.7 |
| 20260506194506 | 60 | 235 | 2.6 | 3.5 | 0.00 | 2.07 | 2.07 | 95 | 1012.7 |
| 20260506194005 | 60 | 264 | 2.6 | 4.3 | 0.04 | 2.07 | 2.07 | 95 | 1012.7 |
| 20260506193005 | 60 | 226 | 2.6 | 3.5 | 0.08 | 2.07 | 2.07 | 95 | 1012.7 |
| 20260506192506 | 60 | 259 | 1.7 | 7.8 | 0.08 | 2.07 | 2.07 | 95 | 1012.7 |
| 20260506192005 | 60 | 280 | 2.6 | 7.8 | 0.12 | 2.07 | 2.07 | 94 | 1012.7 |
| 20260506191506 | 60 | 298 | 4.3 | 6.1 | 0.29 | 2.07 | 2.07 | 88 | 1012.7 |
| 20260506191005 | 60 | 291 | 1.7 | 6.1 | 0.33 | 2.07 | 2.07 | 88 | 1012.7 |
| 20260506190506 | 60 | 260 | 3.5 | 6.1 | 0.33 | 2.07 | 2.07 | 88 | 1012.7 |
| 20260506190006 | 60 | 255 | 0.0 | 5.2 | 0.33 | 2.07 | 2.07 | 88 | 1012.7 |
| 20260506185505 | 60 | 259 | 4.3 | 6.1 | 0.33 | 2.07 | 2.07 | 88 | 1011.7 |
| 20260506184505 | 60 | 98 | 0.0 | 3.5 | 0.33 | 2.07 | 2.07 | 87 | 1011.7 |
| 20260506184006 | 60 | 265 | 1.7 | 3.5 | 0.29 | 2.03 | 2.03 | 88 | 1011.7 |
| 20260506183505 | 60 | 9 | 1.7 | 1.7 | 0.29 | 2.03 | 2.03 | 87 | 1011.7 |
| 20260506183006 | 60 | 73 | 0.9 | 1.7 | 0.25 | 1.99 | 1.99 | 87 | 1011.7 |
| 20260506182506 | 60 | 196 | 1.7 | 2.6 | 0.25 | 1.99 | 1.99 | 87 | 1011.7 |
| 20260506182006 | 60 | 222 | 1.7 | 2.6 | 0.21 | 1.95 | 1.95 | 87 | 1011.7 |
| 20260506181505 | 60 | 248 | 1.7 | 2.6 | 0.04 | 1.78 | 1.78 | 87 | 1011.7 |
| 20260506180506 | 60 | 248 | 1.7 | 3.5 | 0.00 | 1.78 | 1.74 | 86 | 1011.7 |
| 20260506180006 | 61 | 270 | 1.7 | 2.6 | 0.12 | 1.78 | 1.74 | 86 | 1011.7 |
| 20260506175506 | 61 | 316 | 1.7 | 2.6 | 0.21 | 1.78 | 1.74 | 86 | 1011.7 |
| 20260506174506 | 61 | 158 | 1.7 | 6.1 | 0.25 | 1.78 | 1.74 | 86 | 1011.7 |
| 20260506173505 | 61 | 276 | 3.5 | 6.1 | 0.25 | 1.78 | 1.74 | 86 | 1011.7 |
| 20260506173006 | 61 | 272 | 3.5 | 7.8 | 0.25 | 1.78 | 1.74 | 86 | 1011.7 |
| 20260506172505 | 61 | 271 | 6.1 | 13.0 | 0.25 | 1.78 | 1.74 | 84 | 1011.7 |
| 20260506172005 | 61 | 267 | 7.8 | 13.0 | 0.25 | 1.78 | 1.74 | 86 | 1011.7 |
| 20260506171505 | 61 | 254 | 5.2 | 9.6 | 0.25 | 1.78 | 1.74 | 87 | 1011.7 |
| 20260506171006 | 61 | 257 | 3.5 | 10.4 | 0.25 | 1.78 | 1.74 | 88 | 1011.7 |
| 20260506170505 | 61 | 270 | 2.6 | 10.4 | 0.25 | 1.78 | 1.74 | 88 | 1011.7 |
| 20260506170006 | 61 | 290 | 3.5 | 5.2 | 0.13 | 1.66 | 1.62 | 88 | 1011.7 |
| 20260506165505 | 61 | 246 | 0.9 | 1.7 | 0.00 | 1.53 | 1.49 | 88 | 1011.7 |
| 20260506165006 | 61 | 194 | 0.9 | 1.7 | 0.00 | 1.53 | 1.49 | 88 | 1011.7 |
| 20260506164505 | 62 | 138 | 1.7 | 1.7 | 0.00 | 1.53 | 1.49 | 88 | 1011.7 |
| 20260506163505 | 62 | 58 | 1.7 | 1.7 | 0.00 | 1.53 | 1.49 | 88 | 1011.7 |
| 20260506163005 | 62 | 147 | 0.9 | 1.7 | 0.00 | 1.53 | 1.49 | 88 | 1011.7 |
| 20260506162506 | 62 | 127 | 0.0 | 1.7 | 0.00 | 1.53 | 1.49 | 88 | 1011.7 |
| 20260506162005 | 62 | 88 | 0.9 | 1.7 | 0.00 | 1.57 | 1.49 | 88 | 1011.7 |
| 20260506161505 | 62 | 68 | 0.0 | 1.7 | 0.00 | 1.57 | 1.49 | 88 | 1011.7 |
| 20260506161005 | 62 | 68 | 0.9 | 2.6 | 0.00 | 1.57 | 1.49 | 88 | 1010.7 |
| 20260506160506 | 62 | 58 | 1.7 | 2.6 | 0.00 | 1.57 | 1.49 | 88 | 1010.7 |
| 20260506155506 | 62 | 338 | 0.9 | 1.7 | 0.00 | 1.62 | 1.49 | 88 | 1011.7 |
| 20260506155006 | 62 | 250 | 0.0 | 1.7 | 0.00 | 1.62 | 1.49 | 88 | 1011.7 |
| 20260506154505 | 62 | 244 | 0.9 | 1.7 | 0.00 | 1.62 | 1.49 | 88 | 1011.7 |
| 20260506153505 | 62 | 262 | 1.7 | 1.7 | 0.00 | 1.62 | 1.49 | 89 | 1011.7 |
| 20260506152505 | 62 | 220 | 1.7 | 2.6 | 0.00 | 1.62 | 1.49 | 89 | 1012.7 |
| 20260506152006 | 61 | 217 | 1.7 | 2.6 | 0.00 | 1.62 | 1.49 | 88 | 1012.7 |
| 20260506151505 | 61 | 247 | 1.7 | 2.6 | 0.00 | 1.62 | 1.49 | 89 | 1012.7 |
| 20260506151005 | 61 | 291 | 0.9 | 2.6 | 0.00 | 1.66 | 1.49 | 89 | 1012.7 |
| 20260506150506 | 61 | 286 | 1.7 | 3.5 | 0.00 | 1.66 | 1.49 | 88 | 1012.7 |
| 20260506150005 | 61 | 269 | 1.7 | 3.5 | 0.00 | 1.66 | 1.49 | 88 | 1012.7 |
| 20260506145506 | 61 | 249 | 1.7 | 2.6 | 0.00 | 1.66 | 1.49 | 88 | 1012.7 |
| 20260506145006 | 61 | 249 | 1.7 | 2.6 | 0.00 | 1.66 | 1.49 | 88 | 1012.7 |
| 20260506144505 | 61 | 270 | 1.7 | 3.5 | 0.00 | 1.66 | 1.49 | 88 | 1012.7 |
| 20260506144006 | 61 | 292 | 2.6 | 3.5 | 0.00 | 1.66 | 1.49 | 88 | 1012.7 |
| 20260506143506 | 60 | 325 | 0.9 | 1.7 | 0.00 | 1.66 | 1.49 | 88 | 1012.7 |
| 20260506143005 | 60 | 90 | 0.0 | 1.7 | 0.00 | 1.66 | 1.49 | 88 | 1012.7 |
| 20260506142506 | 60 | 96 | 0.9 | 1.7 | 0.00 | 1.66 | 1.49 | 88 | 1012.7 |
| 20260506142005 | 60 | 335 | 0.0 | 1.7 | 0.00 | 1.66 | 1.49 | 88 | 1012.7 |
| 20260506140005 | 60 | 251 | 0.0 | 3.5 | 0.00 | 1.66 | 1.49 | 88 | 1012.7 |
| 20260506135505 | 60 | 246 | 0.0 | 3.5 | 0.00 | 1.66 | 1.49 | 88 | 1012.7 |
| 20260506135006 | 60 | 278 | 1.7 | 4.3 | 0.00 | 1.66 | 1.49 | 87 | 1012.7 |
| 20260506134505 | 60 | 290 | 1.7 | 4.3 | 0.00 | 1.66 | 1.49 | 87 | 1012.7 |
| 20260506133505 | 60 | 293 | 1.7 | 5.2 | 0.00 | 1.66 | 1.49 | 87 | 1013.7 |
| 20260506133005 | 60 | 308 | 2.6 | 5.2 | 0.04 | 1.66 | 1.49 | 88 | 1013.7 |
| 20260506132505 | 60 | 324 | 2.6 | 6.1 | 0.08 | 1.66 | 1.49 | 88 | 1013.7 |
| 20260506131505 | 60 | 349 | 3.5 | 5.2 | 0.08 | 1.66 | 1.49 | 88 | 1013.7 |
| 20260506131005 | 60 | 306 | 2.6 | 5.2 | 0.08 | 1.66 | 1.49 | 88 | 1013.7 |
| 20260506130505 | 60 | 320 | 3.5 | 5.2 | 0.08 | 1.66 | 1.49 | 88 | 1013.7 |
| 20260506130005 | 60 | 295 | 3.5 | 7.0 | 0.08 | 1.66 | 1.49 | 88 | 1013.7 |
| 20260506125005 | 59 | 300 | 3.5 | 7.0 | 0.12 | 1.66 | 1.49 | 88 | 1012.7 |
| 20260506124505 | 59 | 300 | 1.7 | 7.8 | 0.12 | 1.66 | 1.49 | 88 | 1012.7 |
| 20260506123505 | 59 | 300 | 3.5 | 5.2 | 0.08 | 1.66 | 1.45 | 88 | 1012.7 |
| 20260506123006 | 59 | 292 | 3.5 | 5.2 | 0.08 | 1.66 | 1.45 | 88 | 1012.7 |
| 20260506122505 | 59 | 280 | 2.6 | 3.5 | 0.04 | 1.62 | 1.41 | 88 | 1012.7 |
| 20260506122006 | 59 | 298 | 1.7 | 3.5 | 0.04 | 1.62 | 1.41 | 88 | 1012.7 |
| 20260506121505 | 59 | 274 | 1.7 | 4.3 | 0.08 | 1.62 | 1.41 | 88 | 1012.7 |
| 20260506121005 | 59 | 275 | 0.9 | 4.3 | 0.08 | 1.62 | 1.41 | 88 | 1013.7 |
| 20260506120006 | 59 | 290 | 3.5 | 3.5 | 0.08 | 1.62 | 1.41 | 88 | 1013.7 |
| 20260506115505 | 59 | 268 | 1.7 | 3.5 | 0.04 | 1.58 | 1.37 | 88 | 1013.7 |
| 20260506115005 | 59 | 266 | 1.7 | 4.3 | 0.04 | 1.58 | 1.37 | 88 | 1013.7 |
| 20260506114505 | 59 | 274 | 2.6 | 6.1 | 0.04 | 1.58 | 1.37 | 88 | 1013.7 |
| 20260506114005 | 59 | 272 | 1.7 | 7.8 | 0.04 | 1.58 | 1.37 | 88 | 1013.7 |
| 20260506113005 | 59 | 338 | 2.6 | 8.7 | 0.04 | 1.58 | 1.37 | 88 | 1013.7 |
| 20260506112506 | 59 | 332 | 3.5 | 6.1 | 0.04 | 1.58 | 1.37 | 88 | 1013.7 |
| 20260506112005 | 59 | 303 | 4.3 | 7.0 | 0.04 | 1.58 | 1.37 | 88 | 1013.7 |
| 20260506111505 | 59 | 296 | 5.2 | 7.0 | 0.04 | 1.54 | 1.33 | 88 | 1013.7 |
| 20260506110505 | 59 | 291 | 3.5 | 5.2 | 0.04 | 1.54 | 1.33 | 88 | 1013.7 |
| 20260506110005 | 59 | 279 | 3.5 | 5.2 | 0.04 | 1.54 | 1.33 | 88 | 1013.7 |
| 20260506105505 | 59 | 255 | 2.6 | 6.1 | 0.04 | 1.58 | 1.33 | 88 | 1014.7 |
| 20260506105005 | 59 | 256 | 3.5 | 6.1 | 0.04 | 1.58 | 1.33 | 88 | 1014.7 |
| 20260506104505 | 59 | 244 | 2.6 | 6.1 | 0.04 | 1.58 | 1.33 | 88 | 1014.7 |
| 20260506104005 | 59 | 253 | 1.7 | 5.2 | 0.04 | 1.58 | 1.33 | 88 | 1013.7 |
| 20260506103505 | 59 | 272 | 3.5 | 5.2 | 0.04 | 1.58 | 1.33 | 88 | 1013.7 |
| 20260506103005 | 60 | 273 | 1.7 | 5.2 | 0.04 | 1.58 | 1.33 | 88 | 1013.7 |
| 20260506102505 | 60 | 277 | 1.7 | 6.1 | 0.04 | 1.58 | 1.33 | 89 | 1013.7 |
| 20260506102005 | 60 | 296 | 2.6 | 6.1 | 0.04 | 1.58 | 1.33 | 89 | 1013.7 |
| 20260506101505 | 60 | 299 | 1.7 | 5.2 | 0.00 | 1.54 | 1.29 | 89 | 1013.7 |
| 20260506101005 | 60 | 295 | 3.5 | 5.2 | 0.00 | 1.58 | 1.29 | 89 | 1013.7 |
| 20260506100505 | 60 | 302 | 1.7 | 4.3 | 0.00 | 1.58 | 1.29 | 90 | 1013.7 |
| 20260506100006 | 60 | 281 | 1.7 | 5.2 | 0.00 | 1.58 | 1.29 | 90 | 1013.7 |
| 20260506095505 | 60 | 276 | 1.7 | 5.2 | 0.00 | 1.58 | 1.29 | 90 | 1013.7 |
| 20260506095006 | 60 | 304 | 1.7 | 7.8 | 0.00 | 1.58 | 1.29 | 91 | 1013.7 |
| 20260506094006 | 60 | 322 | 4.3 | 6.1 | 0.05 | 1.58 | 1.29 | 91 | 1013.7 |
| 20260506093505 | 60 | 338 | 2.6 | 3.5 | 0.05 | 1.58 | 1.29 | 91 | 1013.7 |
| 20260506093005 | 59 | 75 | 1.7 | 3.5 | 0.05 | 1.58 | 1.29 | 91 | 1013.7 |
| 20260506092505 | 59 | 72 | 1.7 | 3.5 | 0.05 | 1.58 | 1.29 | 91 | 1013.7 |
| 20260506092005 | 59 | 60 | 1.7 | 3.5 | 0.09 | 1.58 | 1.29 | 90 | 1013.7 |
| 20260506091505 | 59 | 58 | 1.7 | 3.5 | 0.09 | 1.58 | 1.29 | 91 | 1013.7 |
| 20260506091006 | 59 | 64 | 1.7 | 3.5 | 0.09 | 1.58 | 1.29 | 90 | 1013.7 |
| 20260506090505 | 59 | 94 | 1.7 | 2.6 | 0.13 | 1.58 | 1.29 | 91 | 1013.7 |
| 20260506090005 | 59 | 113 | 0.0 | 1.7 | 0.13 | 1.58 | 1.29 | 92 | 1013.7 |
| 20260506085505 | 59 | 62 | 0.0 | 1.7 | 0.17 | 1.58 | 1.29 | 92 | 1013.7 |
| 20260506085005 | 58 | 45 | 0.0 | 1.7 | 0.17 | 1.58 | 1.29 | 91 | 1013.7 |
| 20260506084506 | 58 | 45 | 1.7 | 1.7 | 0.12 | 1.53 | 1.24 | 91 | 1013.7 |
| 20260506084005 | 58 | 7 | 0.0 | 1.7 | 0.12 | 1.53 | 1.24 | 91 | 1013.7 |
| 20260506083505 | 58 | 240 | 0.0 | 3.5 | 0.12 | 1.53 | 1.24 | 91 | 1013.7 |
| 20260506083005 | 58 | 233 | 0.9 | 3.5 | 0.12 | 1.53 | 1.24 | 91 | 1013.7 |
| 20260506082005 | 58 | 253 | 1.7 | 1.7 | 0.12 | 1.49 | 1.20 | 91 | 1012.7 |
| 20260506081505 | 58 | 273 | 0.9 | 1.7 | 0.12 | 1.49 | 1.20 | 91 | 1012.7 |
| 20260506081005 | 58 | 276 | 1.7 | 2.6 | 0.12 | 1.49 | 1.20 | 91 | 1012.7 |
| 20260506080505 | 58 | 282 | 2.6 | 2.6 | 0.08 | 1.45 | 1.16 | 90 | 1012.7 |
| 20260506073004 | 58 | 192 | 0.0 | 1.7 | 0.21 | 1.41 | 1.12 | 91 | 1013.7 |
| 20260506072505 | 58 | 177 | 0.9 | 1.7 | 0.21 | 1.37 | 1.08 | 91 | 1013.7 |
| 20260506072005 | 57 | 134 | 0.9 | 1.7 | 0.29 | 1.37 | 1.08 | 91 | 1013.7 |
| 20260506071505 | 57 | 65 | 0.9 | 1.7 | 0.29 | 1.37 | 1.08 | 90 | 1013.7 |
| 20260506071005 | 57 | 14 | 0.0 | 2.6 | 0.33 | 1.37 | 1.08 | 90 | 1013.7 |
| 20260506070505 | 57 | 25 | 1.7 | 3.5 | 0.38 | 1.37 | 1.08 | 90 | 1013.7 |
| 20260506062505 | 57 | 209 | 0.0 | 1.7 | 0.21 | 1.16 | 0.87 | 90 | 1013.7 |
| 20260506061504 | 57 | 343 | 0.0 | 1.7 | 0.13 | 1.08 | 0.79 | 90 | 1013.7 |
| 20260506061005 | 57 | 270 | 0.9 | 1.7 | 0.09 | 1.04 | 0.75 | 90 | 1013.7 |
| 20260506060505 | 57 | 216 | 0.9 | 1.7 | 0.04 | 0.99 | 0.70 | 90 | 1013.7 |
| 20260506051005 | 56 | 171 | 0.0 | 1.7 | 0.00 | 0.95 | 0.66 | 90 | 1013.7 |
| 20260506050505 | 56 | 157 | 0.0 | 1.7 | 0.00 | 0.95 | 0.66 | 90 | 1013.7 |
| 20260506045005 | 56 | 0 | 0.0 | 0.0 | 0.00 | 0.95 | 0.66 | 90 | 1013.7 |
| 20260506044505 | 56 | 0 | 0.0 | 0.0 | 0.00 | 0.95 | 0.66 | 90 | 1013.7 |
| 20260506044004 | 56 | 112 | 0.0 | 1.7 | 0.00 | 0.95 | 0.66 | 89 | 1013.7 |
| 20260506043505 | 56 | 110 | 0.0 | 1.7 | 0.00 | 0.95 | 0.66 | 89 | 1013.7 |
| 20260506043004 | 56 | 91 | 0.9 | 1.7 | 0.00 | 0.95 | 0.66 | 89 | 1013.7 |
| 20260506042005 | 56 | 47 | 1.7 | 1.7 | 0.00 | 0.95 | 0.66 | 89 | 1013.7 |
| 20260506041505 | 56 | 48 | 0.0 | 1.7 | 0.00 | 0.95 | 0.66 | 89 | 1013.7 |
| 20260506041005 | 56 | 81 | 0.9 | 1.7 | 0.00 | 0.95 | 0.66 | 89 | 1013.7 |
| 20260506040505 | 56 | 113 | 0.9 | 1.7 | 0.00 | 0.95 | 0.66 | 90 | 1013.7 |
| 20260506035505 | 56 | 0 | 0.0 | 0.0 | 0.00 | 0.95 | 0.66 | 90 | 1013.7 |
| 20260506034505 | 56 | 135 | 0.0 | 0.9 | 0.00 | 0.95 | 0.66 | 90 | 1013.7 |
| 20260506034005 | 56 | 138 | 0.0 | 1.7 | 0.00 | 0.95 | 0.66 | 90 | 1013.7 |
| 20260506033006 | 56 | 158 | 0.0 | 1.7 | 0.00 | 0.95 | 0.66 | 90 | 1013.7 |
| 20260506032505 | 56 | 181 | 0.0 | 1.7 | 0.00 | 0.95 | 0.66 | 90 | 1013.7 |
| 20260506032005 | 56 | 181 | 0.0 | 1.7 | 0.00 | 0.95 | 0.66 | 90 | 1013.7 |
| 20260506031505 | 56 | 1 | 0.9 | 1.7 | 0.00 | 0.95 | 0.66 | 90 | 1013.7 |
| 20260506031005 | 56 | 32 | 0.9 | 1.7 | 0.00 | 0.95 | 0.66 | 89 | 1013.7 |
| 20260506030505 | 56 | 112 | 0.0 | 1.7 | 0.00 | 0.95 | 0.66 | 90 | 1013.7 |
| 20260506030005 | 57 | 0 | 0.0 | 0.0 | 0.00 | 0.95 | 0.66 | 90 | 1013.7 |
| 20260506025504 | 57 | 0 | 0.0 | 0.0 | 0.00 | 0.95 | 0.66 | 90 | 1012.7 |
| 20260506025005 | 57 | 100 | 0.0 | 1.7 | 0.00 | 0.95 | 0.66 | 90 | 1012.7 |
| 20260506024504 | 57 | 98 | 0.0 | 1.7 | 0.00 | 0.95 | 0.66 | 90 | 1012.7 |
| 20260506024005 | 57 | 90 | 0.9 | 1.7 | 0.00 | 0.95 | 0.66 | 90 | 1013.7 |
| 20260506023505 | 57 | 298 | 0.0 | 1.7 | 0.00 | 0.95 | 0.66 | 90 | 1013.7 |
| 20260506023005 | 57 | 300 | 0.0 | 1.7 | 0.00 | 0.95 | 0.66 | 90 | 1013.7 |
| 20260506022505 | 56 | 116 | 0.9 | 1.7 | 0.00 | 0.95 | 0.66 | 90 | 1013.7 |
| 20260506022004 | 57 | 111 | 1.7 | 1.7 | 0.00 | 0.95 | 0.66 | 90 | 1013.7 |
| 20260506021505 | 57 | 45 | 0.0 | 1.7 | 0.00 | 0.95 | 0.66 | 90 | 1013.7 |
| 20260506021005 | 57 | 45 | 0.0 | 1.7 | 0.00 | 0.95 | 0.66 | 90 | 1013.7 |
| 20260506020505 | 57 | 45 | 1.7 | 1.7 | 0.00 | 0.95 | 0.66 | 90 | 1013.7 |
| 20260506020005 | 56 | 45 | 0.9 | 1.7 | 0.00 | 0.95 | 0.66 | 89 | 1013.7 |
| 20260506015505 | 56 | 45 | 0.9 | 1.7 | 0.04 | 0.95 | 0.66 | 90 | 1013.7 |
| 20260506015005 | 56 | 341 | 1.7 | 1.7 | 0.04 | 0.95 | 0.66 | 89 | 1013.7 |
| 20260506014005 | 56 | 209 | 0.0 | 1.7 | 0.08 | 0.95 | 0.66 | 90 | 1013.7 |
| 20260506013505 | 56 | 217 | 0.9 | 1.7 | 0.12 | 0.95 | 0.66 | 89 | 1013.7 |
| 20260506013004 | 56 | 225 | 0.0 | 1.7 | 0.20 | 0.95 | 0.66 | 89 | 1013.7 |
| 20260506012505 | 56 | 204 | 0.0 | 1.7 | 0.25 | 0.95 | 0.66 | 89 | 1013.7 |
| 20260506012004 | 56 | 173 | 0.0 | 1.7 | 0.33 | 0.95 | 0.66 | 89 | 1013.7 |
| 20260506011505 | 56 | 134 | 0.9 | 1.7 | 0.37 | 0.95 | 0.66 | 89 | 1013.7 |
| 20260506011004 | 56 | 46 | 0.0 | 1.7 | 0.41 | 0.95 | 0.66 | 89 | 1013.7 |
| 20260506010505 | 56 | 74 | 0.0 | 1.7 | 0.45 | 0.95 | 0.66 | 89 | 1013.7 |
| 20260506005504 | 56 | 90 | 0.0 | 1.7 | 0.46 | 0.91 | 0.62 | 89 | 1013.7 |
| 20260506005006 | 56 | 102 | 0.0 | 1.7 | 0.46 | 0.91 | 0.62 | 90 | 1013.7 |
| 20260506004506 | 56 | 106 | 0.9 | 1.7 | 0.46 | 0.91 | 0.62 | 90 | 1013.7 |
| 20260506003505 | 57 | 111 | 1.7 | 1.7 | 0.41 | 0.83 | 0.54 | 89 | 1013.7 |
| 20260506003005 | 57 | 327 | 0.0 | 2.6 | 0.38 | 0.75 | 0.46 | 89 | 1013.7 |
| 20260506002505 | 57 | 305 | 0.0 | 2.6 | 0.33 | 0.70 | 0.41 | 89 | 1013.7 |
| 20260506002005 | 57 | 233 | 2.6 | 2.6 | 0.29 | 0.62 | 0.33 | 89 | 1013.7 |
| 20260506001005 | 57 | 261 | 1.7 | 1.7 | 0.25 | 0.54 | 0.25 | 89 | 1013.7 |
| 20260506000505 | 57 | 150 | 1.7 | 1.7 | 0.21 | 0.50 | 0.21 | 89 | 1013.7 |
| 20260506000005 | 57 | 85 | 1.7 | 3.5 | 0.21 | 0.50 | 0.21 | 89 | 1013.7 |
| 20260505235505 | 57 | 56 | 1.7 | 3.5 | 0.16 | 0.45 | 0.16 | 89 | 1013.7 |
| 20260505235005 | 57 | 63 | 1.7 | 3.5 | 0.16 | 0.45 | 0.16 | 89 | 1013.7 |
| 20260505234505 | 57 | 56 | 1.7 | 3.5 | 0.16 | 0.45 | 0.16 | 89 | 1013.7 |
| 20260505233504 | 57 | 74 | 1.7 | 2.6 | 0.13 | 0.42 | 0.13 | 89 | 1013.7 |
| 20260505233004 | 57 | 107 | 1.7 | 2.6 | 0.08 | 0.37 | 0.08 | 89 | 1013.7 |
| 20260505232504 | 57 | 116 | 1.7 | 3.5 | 0.04 | 0.33 | 0.04 | 89 | 1014.7 |
| 20260505232005 | 57 | 281 | 0.0 | 3.5 | 0.04 | 0.33 | 0.04 | 89 | 1014.7 |
| 20260505231505 | 57 | 258 | 1.7 | 2.6 | 0.00 | 0.29 | 0.00 | 88 | 1014.7 |
| 20260505231004 | 57 | 189 | 0.9 | 1.7 | 0.00 | 0.29 | 0.00 | 89 | 1014.7 |
| 20260505230505 | 57 | 0 | 0.0 | 0.0 | 0.00 | 0.29 | 0.00 | 89 | 1014.7 |
| 20260505230005 | 57 | 254 | 0.0 | 2.6 | 0.00 | 0.29 | 0.00 | 89 | 1014.7 |
| 20260505225505 | 57 | 257 | 0.9 | 2.6 | 0.00 | 0.29 | 0.00 | 89 | 1013.7 |
| 20260505225005 | 57 | 256 | 1.7 | 3.5 | 0.00 | 0.29 | 0.00 | 89 | 1013.7 |
| 20260505224505 | 57 | 256 | 1.7 | 3.5 | 0.00 | 0.29 | 0.00 | 89 | 1013.7 |
| 20260505224005 | 57 | 278 | 2.6 | 3.5 | 0.00 | 0.29 | 0.00 | 88 | 1014.7 |
| 20260505223505 | 57 | 261 | 1.7 | 3.5 | 0.00 | 0.29 | 0.00 | 88 | 1014.7 |
| 20260505223005 | 57 | 233 | 1.7 | 3.5 | 0.00 | 0.29 | 0.00 | 88 | 1014.7 |
| 20260505222505 | 57 | 260 | 1.7 | 3.5 | 0.00 | 0.29 | 0.00 | 88 | 1015.7 |
| 20260505222005 | 57 | 261 | 1.7 | 3.5 | 0.00 | 0.29 | 0.00 | 88 | 1015.7 |
| 20260505221504 | 57 | 245 | 2.6 | 3.5 | 0.00 | 0.29 | 0.00 | 88 | 1015.7 |
| 20260505220011 | 57 | 257 | 1.7 | 3.5 | 0.00 | 0.29 | 0.00 | 88 | 1014.7 |
| 20260505215506 | 57 | 247 | 2.6 | 3.5 | 0.00 | 0.29 | 0.29 | 88 | 1015.7 |
| 20260505214007 | 57 | 255 | 3.5 | 5.2 | 0.00 | 0.29 | 0.29 | 89 | 1015.7 |
| 20260505213506 | 57 | 267 | 2.6 | 5.2 | 0.00 | 0.29 | 0.29 | 88 | 1015.7 |
| 20260505213007 | 57 | 247 | 3.5 | 5.2 | 0.00 | 0.29 | 0.29 | 88 | 1015.7 |
| 20260505212506 | 57 | 231 | 2.6 | 4.3 | 0.00 | 0.29 | 0.29 | 89 | 1015.7 |
| 20260505212007 | 57 | 234 | 4.3 | 4.3 | 0.00 | 0.29 | 0.29 | 89 | 1015.7 |
| 20260505211506 | 57 | 251 | 2.6 | 4.3 | 0.00 | 0.29 | 0.29 | 89 | 1015.7 |
| 20260505211007 | 57 | 252 | 3.5 | 4.3 | 0.00 | 0.29 | 0.29 | 88 | 1015.7 |
| 20260505210506 | 57 | 243 | 2.6 | 4.3 | 0.00 | 0.29 | 0.29 | 89 | 1015.7 |
| 20260505205506 | 57 | 239 | 1.7 | 3.5 | 0.00 | 0.29 | 0.29 | 88 | 1014.7 |
| 20260505205007 | 57 | 230 | 2.6 | 3.5 | 0.00 | 0.29 | 0.29 | 88 | 1014.7 |
| 20260505204507 | 57 | 223 | 1.7 | 3.5 | 0.00 | 0.29 | 0.29 | 88 | 1014.7 |
| 20260505204007 | 57 | 219 | 1.7 | 3.5 | 0.00 | 0.29 | 0.29 | 88 | 1015.7 |
| 20260505203506 | 57 | 233 | 2.6 | 4.3 | 0.00 | 0.29 | 0.29 | 88 | 1015.7 |
| 20260505202506 | 56 | 237 | 3.5 | 4.3 | 0.00 | 0.29 | 0.29 | 88 | 1015.7 |